sat.trackr.live / text

‹ back to catalog

STARLINK-36370

NORAD 67937 · 2026-037F

PAYLOAD ACTIVE UNKNOWN

§ Identity

Operator
Country
US
Launch date
2026-02-24
Launch site
AFETR
Launch vehicle
Mass (kg)
RCS (m²)

Purposes: comms

External: N2YO · Heavens-Above · Gunter

§ Orbital elements

Epoch: 2026-05-25T05:27:56.813760Z

Period
94.27 min
Inclination
42.9959°
Eccentricity
0.0000750
Mean motion
15.27589907 rev/d
Perigee alt
482.5 km
Apogee alt
483.5 km
Semi-major
6,861.2 km
B*
5.4180e-4
RAAN
118.7058°
Arg perigee
277.1810°
Mean anomaly
82.8956°
Rev number
1,504

§ Raw data

STARLINK-363701 67937U 26037F   26145.22774090  .00014681  00000+0  54180-3 0  99992 67937  42.9959 118.7058 0000750 277.1810  82.8956 15.27589907 15041

JSON: /api/v1/satellites/67937 · /tle

For live sub-satellite position, see the globe view (requires WebGL).

§ Visibility from observer

Set your observer location to see the next 7 days of passes ≥ 10°. The values pass through the URL so the page stays shareable.

No JS? Fill the form by hand. The geolocation button needs JavaScript.